Flag for Netherlands Weather past 2 weeks in Rotterdam, Netherlands

Now
52 °F

Scattered clouds.


Feels Like: 48 °F
Forecast: 35 / 51 °F
Wind: 10 mph from North

Location: Rotterdam Zestienhoven Airport

Current Time: Apr 27, 2015 at 11:57:18 AM

Latest Report: Apr 27, 2015 at 11:25 AM


Visibility: N/A

Pressure: 29.80 "Hg

Humidity: 58%

Dew point: 37 °F

Location of RotterdamLocation

Historic Weather in Rotterdam — Graph

°F

Rotterdam temperature yesterday

Maximum temperature yesterday: 55 °F (at 12:55 AM)
Minimum temperature yesterday: 48 °F (at 9:55 PM)
Average temperature yesterday: 52 °F

Past Weeks' High & Low Weather Summary

 TemperatureHumidityPressure
High70 °F (Apr 15, 1:55 PM)100% (Apr 16, 2:55 AM)30.51 "Hg (Apr 16, 2:55 AM)
Low34 °F (Apr 19, 5:55 AM)39% (Apr 21, 4:55 PM)29.68 "Hg (Apr 26, 3:55 AM)
Average50 °F76%30.14 "Hg
* Reported Apr 12 9:25 AM — Apr 27 9:55 AM, Rotterdam, Weather by CustomWeather, © 2015

Note: Actual official high and low records may vary slightly from our data, if they occured in-between our weather recording intervals... More about our weather records

Advertising

Rotterdam weather history for previous 24 hours

 ConditionsComfort  
Time TempWeatherWind HumidityBarometerVisibility
9:55 AM
Mon, Apr 27
50 °FScattered clouds.13 mph62%29.80 "HgN/A
9:25 AM48 °FClear.13 mph71%29.77 "HgN/A
8:55 AM46 °FCool.10 mph76%29.77 "HgN/A
8:25 AM46 °FCool.8 mph76%29.77 "HgN/A
7:55 AM43 °FClear.6 mph81%29.77 "HgN/A
7:25 AM41 °FQuite cool.5 mph87%29.77 "HgN/A
6:55 AM39 °FClear.5 mph87%29.74 "HgN/A
6:25 AM39 °FClear.6 mph87%29.74 "HgN/A
5:55 AM39 °FClear.7 mph93%29.74 "HgN/A
5:25 AM41 °FClear.7 mph87%29.74 "HgN/A
4:55 AM43 °FClear.8 mph81%29.74 "HgN/A
4:25 AM43 °FClear.7 mph81%29.71 "HgN/A
3:55 AM43 °FClear.6 mph81%29.71 "HgN/A
3:25 AM45 °FClear.9 mph81%29.74 "HgN/A
2:55 AM45 °FOvercast.8 mph81%29.74 "HgN/A
2:25 AM45 °FOvercast.10 mph81%29.71 "HgN/A
1:55 AM46 °FOvercast.12 mph82%29.74 "HgN/A
1:25 AM46 °FOvercast.12 mph82%29.74 "HgN/A
12:55 AM46 °FOvercast.10 mph87%29.71 "HgN/A
12:25 AM46 °FOvercast.10 mph87%29.74 "HgN/A
11:55 PM
Sun, Apr 26
48 °FOvercast.7 mph82%29.74 "HgN/A
11:25 PM48 °FMostly cloudy.8 mph82%29.74 "HgN/A
10:55 PM48 °FOvercast.8 mph82%29.74 "HgN/A
10:25 PM48 °FMostly cloudy.10 mph87%29.71 "HgN/A
9:55 PM48 °FOvercast.9 mph87%29.71 "HgN/A
9:25 PM50 °FOvercast.9 mph82%29.71 "HgN/A
8:55 PM50 °FOvercast.9 mph82%29.71 "HgN/A
8:25 PM50 °FMostly cloudy.7 mph88%29.71 "HgN/A
7:55 PM52 °FCloudy.7 mph82%29.71 "HgN/A
7:25 PM52 °FCloudy.8 mph82%29.71 "HgN/A
6:55 PM52 °FCloudy.8 mph88%29.71 "HgN/A
6:25 PM52 °FOvercast.8 mph88%29.71 "HgN/A
5:55 PM52 °FMostly cloudy.9 mph88%29.71 "HgN/A
5:25 PM52 °FBroken clouds.9 mph82%29.71 "HgN/A
4:55 PM52 °FOvercast.8 mph88%29.71 "HgN/A
4:25 PM52 °FMostly cloudy.8 mph88%29.71 "HgN/A
3:55 PM52 °FMostly cloudy.6 mph88%29.71 "HgN/A
3:25 PM52 °FMostly cloudy.8 mph88%29.71 "HgN/A
2:55 PM52 °FMostly cloudy.7 mph88%29.71 "HgN/A
2:25 PM52 °FMostly cloudy.7 mph88%29.71 "HgN/A
1:55 PM50 °FDrizzle. Cloudy.7 mph94%29.71 "Hg3 mi
1:25 PM52 °FCloudy.6 mph88%29.71 "Hg6 mi
12:55 PM52 °FDrizzle. Cloudy.6 mph94%29.71 "Hg2 mi
12:25 PM52 °FDrizzle. Mostly cloudy.5 mph94%29.71 "Hg2 mi
11:55 AM52 °FFog.6 mph94%29.71 "Hg2 mi
11:25 AM52 °FBroken clouds.7 mph94%29.71 "Hg4 mi
Weather by CustomWeather, © 2015

See weather overviewHow to use our weather pages